DW1685 Weather Reports


Display with metric or nautical units.
time (UTC)temp
F
wind
direction
speed
MPH
gust
MPH
rain 1hr
in
rain 24hr
in
rain mn
in
humidity
%
barometer
mb
20181016170142 65 205 1.0 2.0 0.00 0.00 0.00 41 1019.6
20181016164607 65 176 0.0 3.0 0.00 0.00 0.00 44 1019.5
20181016163043 66 246 0.0 2.0 0.00 0.00 0.00 36 1019.3
20181016161624 67 192 0.0 2.0 0.00 0.00 0.00 37 1019.3
20181016160021 66 126 0.0 2.0 0.00 0.00 0.00 36 1019.2
20181016154607 68 192 0.0 1.0 0.00 0.00 0.00 28 1019.0
20181016153029 68 33 0.0 2.0 0.00 0.00 0.00 29 1018.9
20181016151505 67 240 0.0 2.0 0.00 0.00 0.00 29 1018.8
20181016150006 66 49 0.0 2.0 0.00 0.00 0.00 27 1018.6
20181016144501 65 349 1.0 3.0 0.00 0.00 0.00 26 1018.5
20181016143144 66 167 0.0 3.0 0.00 0.00 0.00 30 1018.5
20181016141751 67 177 1.0 2.0 0.00 0.00 0.00 25 1018.3
20181016140135 67 78 1.0 3.0 0.00 0.00 0.00 24 1018.4
20181016134638 66 316 0.0 2.0 0.00 0.00 0.00 25 1018.5
20181016133126 66 40 1.0 3.0 0.00 0.00 0.00 25 1018.5
20181016131643 66 65 0.0 3.0 0.00 0.00 0.00 25 1018.5
20181016124658 65 5 0.0 4.0 0.00 0.00 0.00 28 1018.5
20181016123209 65 360 3.0 4.0 0.00 0.00 0.00 28 1018.5
20181016121710 64 43 0.0 1.0 0.00 0.00 0.00 31 1018.4
20181016120245 65 11 0.0 1.0 0.00 0.00 0.00 31 1018.4
20181016114613 65 91 0.0 1.0 0.00 0.01 0.00 35 1018.4
20181016113053 65 96 0.0 1.0 0.00 0.01 0.00 31 1018.4
20181016111639 65 44 1.0 2.0 0.00 0.01 0.00 29 1018.3
20181016110112 65 59 1.0 2.0 0.00 0.01 0.00 38 1018.4
20181016104720 65 5 0.0 1.0 0.00 0.01 0.00 30 1018.3
20181016103218 65 5 0.0 1.0 0.00 0.01 0.00 32 1018.3
20181016101550 65 5 0.0 2.0 0.00 0.01 0.00 30 1018.4
20181016100127 64 5 0.0 1.0 0.00 0.01 0.00 37 1018.6
20181016094551 64 21 0.0 0.0 0.00 0.01 0.00 35 1018.6
20181016093122 64 30 0.0 2.0 0.00 0.01 0.00 39 1018.7
20181016091647 64 19 0.0 2.0 0.00 0.01 0.00 35 1018.7
20181016090135 64 72 0.0 2.0 0.00 0.01 0.00 41 1018.6
20181016084601 64 21 1.0 3.0 0.00 0.01 0.00 42 1018.6
20181016083049 65 5 0.0 2.0 0.00 0.01 0.00 34 1018.7
20181016081539 67 217 0.0 3.0 0.00 0.01 0.00 30 1018.6
20181016080039 66 289 0.0 3.0 0.00 0.01 0.00 32 1018.8
20181016074547 67 263 0.0 3.0 0.00 0.01 0.00 31 1019.0
20181016073030 68 212 1.0 5.0 0.00 0.01 0.00 31 1018.9
20181016071605 69 240 1.0 4.0 0.00 0.01 0.00 28 1018.9
20181016070039 69 293 1.0 4.0 0.00 0.01 0.00 27 1018.9
20181016064603 69 322 0.0 2.0 0.00 0.01 0.00 27 1019.0
20181016063021 69 323 1.0 5.0 0.00 0.01 0.00 28 1019.2
20181016061517 68 275 5.0 8.0 0.00 0.01 0.00 28 1019.2
20181016060015 67 345 2.0 8.0 0.00 0.01 0.00 30 1019.2
20181016054515 66 277 2.0 6.0 0.00 0.01 0.00 31 1019.1
20181016053025 68 305 3.0 6.0 0.00 0.01 0.00 32 1019.1
20181016051521 68 5 1.0 5.0 0.00 0.01 0.00 31 1019.1
20181016050027 69 271 2.0 5.0 0.00 0.01 0.00 32 1019.0
20181016044511 68 290 0.0 5.0 0.00 0.01 0.00 33 1019.0
20181016043023 68 276 2.0 5.0 0.00 0.01 0.00 33 1018.9
20181016041511 67 302 1.0 5.0 0.00 0.01 0.00 36 1018.9
20181016040014 66 5 1.0 4.0 0.00 0.01 0.00 38 1018.8
20181016034535 65 344 2.0 4.0 0.00 0.01 0.00 42 1018.7
20181016033004 65 313 2.0 4.0 0.00 0.01 0.00 44 1018.7
20181016031504 65 5 1.0 3.0 0.00 0.01 0.00 44 1018.9
20181016030002 67 18 0.0 2.0 0.00 0.01 0.00 41 1019.0
20181016024502 66 5 0.0 3.0 0.00 0.01 0.00 42 1019.0
20181016023125 65 5 1.0 3.0 0.00 0.01 0.00 45 1019.0
20181016021633 65 322 0.0 3.0 0.00 0.01 0.00 46 1019.1
20181016020201 65 301 0.0 1.0 0.00 0.01 0.00 46 1019.1
20181016014653 66 360 0.0 3.0 0.00 0.01 0.00 47 1019.2
20181016013112 67 355 1.0 3.0 0.00 0.01 0.00 44 1019.2
20181016011717 69 355 0.0 4.0 0.00 0.01 0.00 43 1019.1
20181016010212 70 338 0.0 3.0 0.00 0.01 0.00 47 1019.3
20181016004606 68 267 0.0 3.0 0.00 0.01 0.00 61 1019.2
20181016003137 66 215 2.0 7.0 0.00 0.01 0.00 69 1019.2
20181016001704 66 211 4.0 9.0 0.00 0.01 0.00 68 1019.3
20181016000103 66 210 3.0 6.0 0.00 0.01 0.00 71 1019.3
20181015234623 65 186 0.0 5.0 0.00 0.01 0.00 74 1019.2
20181015233057 64 283 1.0 6.0 0.00 0.01 0.00 74 1019.3
20181015231621 65 204 2.0 7.0 0.00 0.01 0.00 72 1019.3
20181015230137 68 217 3.0 6.0 0.00 0.01 0.00 67 1019.4
20181015224629 68 224 3.0 7.0 0.00 0.01 0.00 64 1019.5
20181015223109 67 212 4.0 8.0 0.00 0.01 0.00 65 1019.6
20181015221601 67 234 2.0 6.0 0.00 0.01 0.00 66 1019.5
20181015220100 68 165 2.0 5.0 0.00 0.01 0.00 66 1019.7
20181015214637 67 211 2.0 8.0 0.00 0.01 0.00 65 1019.5
20181015213110 70 221 3.0 5.0 0.00 0.01 0.00 59 1019.7
20181015211558 69 216 3.0 8.0 0.00 0.01 0.00 59 1019.8
20181015210045 70 205 3.0 6.0 0.00 0.01 0.00 52 1020.0
20181015204555 71 229 4.0 10.0 0.00 0.01 0.00 42 1020.1
20181015203035 69 227 4.0 8.0 0.00 0.01 0.00 49 1020.3
20181015201534 68 244 1.0 4.0 0.00 0.01 0.00 66 1020.5
20181015200037 68 192 0.0 4.0 0.00 0.01 0.00 68 1020.5
20181015194532 68 209 1.0 3.0 0.00 0.01 0.00 69 1020.6
20181015193015 65 240 1.0 4.0 0.00 0.01 0.01 73 1020.6